Regional Weather Roundup
Issued by NWS

Home | Current Version | Previous Version | Text Only | Print | Product List | Glossary Off
Versions: 1 2 3 4 5 6 7 8 9 10 11 12 13 14 15 16 17 18 19 20 21 22 23 24 25 26 27 28 29 30 31 32 33 34 35 36 37 38 39 40 41 42 43 44 45 46 47 48 49 50

838
ASUS43 KLSX 182007
RWRMO

WEATHER SUMMARY FOR MISSOURI
NATIONAL WEATHER SERVICE SPRINGFIELD MO
300 PM CDT WED OCT 18 2017

NOTE: "FAIR" INDICATES FEW OR NO CLOUDS BELOW 12,000 FEET WITH NO
       SIGNIFICANT WEATHER AND/OR OBSTRUCTIONS TO VISIBILITY.
       CURRENT SKY AND/OR WEATHER CONDITIONS ARE NOT AVAILABLE FOR
       CHILLICOTHE AND FARMINGTON.

MOZ001>031-035>038-043-044-053-054-182100-
...NORTHERN AND WESTERN MISSOURI...

CITY           SKY/WX    TMP DP  RH WIND       PRES   REMARKS
KANSAS CTY INT PTSUNNY   73  49  42 S18G24    29.98F
KANSAS C DTWN  SUNNY     75  49  39 S13G22    29.98F
LEE`S SUMMIT   SUNNY     73  48  41 S21       30.00F
ST JOSEPH      SUNNY     72  49  44 S15       29.97S
CHILLICOTHE      N/A     73  50  44 S12G18    29.99F
KIRKSVILLE     SUNNY     72  50  45 S15       30.01F

$$
MOZ066>068-077>081-088>096-101>105-182100-
...SOUTHWEST MISSOURI...

CITY           SKY/WX    TMP DP  RH WIND       PRES   REMARKS
SPRINGFIELD    SUNNY     77  44  30 S12G20    30.08F
JOPLIN         SUNNY     76  48  37 S21       30.06F
BRANSON        MOSUNNY   77  37  24 SW9       30.11F

$$
MOZ032>034-039>042-045>050-055>058-069>072-182100-
...CENTRAL MISSOURI...

CITY           SKY/WX    TMP DP  RH WIND       PRES   REMARKS
COLUMBIA       SUNNY     72  47  40 S13       30.08F
JEFFERSON CITY MOSUNNY   73  44  35 SW10      30.07F
ROLLA          SUNNY     74  39  28 S12       30.11F
SEDALIA        SUNNY     75  49  39 S15       30.05F
WHITEMAN AFB   MOSUNNY   74  49  41 S18       29.99F
WARRENSBURG    SUNNY     73  45  35 S15       30.03F
OSAGE BEACH    SUNNY     74  46  36 S9        30.09F

$$
MOZ051-052-059>065-182100-
...EAST CENTRAL MISSOURI...

CITY           SKY/WX    TMP DP  RH WIND       PRES   REMARKS
ST LOUIS INTL  MOSUNNY   74  46  36 S9        30.11F
SPIRIT OF STL  SUNNY     75  44  33 S8        30.09F
ST CHARLES     SUNNY     74  44  34 S13       30.09F

$$
MOZ072>076-082>087-097>100-106>115-182100-
...SOUTH CENTRAL AND SOUTHEAST MISSOURI...

CITY           SKY/WX    TMP DP  RH WIND       PRES   REMARKS
CAPE GIRARDEAU SUNNY     74  46  36 S13G18    30.16F
FARMINGTON     SUNNY     71  48  43 S10G18    30.15F
POPLAR BLUFF   SUNNY     73  48  41 S14       30.16F
WEST PLAINS    SUNNY     74  42  31 S10       30.14F

$$



USA.gov is the U.S. government's official web portal to all federal, state and local government web resources and services.